Location: Newark
(12.4436°N, 0.6167°W)
Time: 10:36:16
(UTC+00:00)

deb Explorer IX - Pass Details

Date: 08 December 2019
Orbit: 548 x 1101 km, 38.8° (Epoch: 21 January)

Event Time Altitude Azimuth Distance (km) Brightness Sun altitude
Rises 02:23:14 0° 281° (WNW) 3,805 - -53.1°
Reaches altitude 10° 02:27:12 10° 262° (W) 2,765 - -52.2°
Maximum altitude 02:31:03 16° 226° (SW) 2,253 - -51.3°
Drops below altitude 10° 02:34:41 10° 190° (S) 2,548 - -50.5°
Sets 02:38:08 0° 168° (SSE) 3,364 - -49.7°
